�N����,����,�~����,�C��,���x,�C��,����,���ϕ���,�ő�u�ԕ���,�ő厞����,���˗�,�I�_���x,�n�����x,�ő啗���N��,DTYPE
"17/07/03","00:10",0.0,23.5,95.0,1006.2,306.9,0.5,1.1,327.8,0.00,22.7,24.7,"00:00:32",1
"17/07/03","00:20",0.0,23.3,95.0,1006.2,280.3,0.2,0.6,232.5,0.00,22.5,24.6,"00:18:56",1
"17/07/03","00:30",0.0,23.3,95.2,1006.0,259.0,0.1,0.5,299.0,0.00,22.5,24.7,"00:28:56",1
"17/07/03","00:40",0.0,23.2,95.3,1006.0,261.6,0.2,0.4,228.5,0.00,22.4,24.5,"00:32:00",1
"17/07/03","00:50",0.0,23.1,95.3,1006.0,298.4,0.1,0.4,303.9,0.00,22.3,24.2,"00:45:28",1
"17/07/03","01:00",0.0,23.1,95.4,1006.0,264.8,0.2,0.4,239.3,0.00,22.4,24.5,"00:50:08",1
"17/07/03","01:10",0.0,23.0,95.5,1005.7,326.9,0.3,0.9,340.1,0.00,22.3,24.4,"01:04:56",1
"17/07/03","01:20",0.0,23.0,95.6,1006.0,293.5,0.2,0.6,310.8,0.00,22.3,24.4,"01:18:56",1
"17/07/03","01:30",0.0,23.0,95.5,1005.5,324.7,0.3,1.0,352.4,0.00,22.3,24.2,"01:21:20",1
"17/07/03","01:40",0.0,23.0,95.6,1005.5,331.5,0.2,0.8,347.9,0.00,22.3,24.3,"01:35:36",1
"17/07/03","01:50",0.0,22.9,95.8,1005.5,242.0,0.2,0.5,226.1,0.00,22.2,24.1,"01:47:04",1
"17/07/03","02:00",0.0,22.9,95.8,1005.2,257.3,0.5,0.9,251.7,0.00,22.2,24.4,"01:56:08",1
"17/07/03","02:10",0.0,22.8,95.9,1005.5,307.9,0.3,0.8,224.5,0.00,22.2,24.2,"02:00:40",1
"17/07/03","02:20",0.0,22.8,95.8,1005.0,282.7,0.2,0.6,345.6,0.00,22.1,24.3,"02:19:20",1
"17/07/03","02:30",0.0,22.7,95.8,1005.7,306.7,0.3,0.6,355.5,0.00,22.0,24.1,"02:20:40",1
"17/07/03","02:40",0.0,22.7,96.0,1005.5,267.1,0.2,0.6,312.4,0.00,22.1,24.2,"02:39:36",1
"17/07/03","02:50",0.0,22.6,96.0,1005.2,315.6,0.3,0.6,250.2,0.00,22.0,24.1,"02:42:24",1
"17/07/03","03:00",0.0,22.5,96.0,1005.5,224.7,0.1,0.8,194.4,0.00,21.9,24.0,"02:56:00",1
"17/07/03","03:10",0.0,22.6,96.3,1006.0,316.4,0.2,0.9,21.7,0.00,22.0,23.9,"03:09:04",1
"17/07/03","03:20",0.0,22.6,96.0,1006.0,326.1,0.1,1.0,351.6,0.00,22.0,23.8,"03:10:32",1
"17/07/03","03:30",0.0,22.5,96.1,1005.7,260.7,0.3,0.6,194.9,0.00,21.9,24.0,"03:28:16",1
"17/07/03","03:40",0.0,22.4,96.2,1006.0,279.8,0.1,0.5,326.7,0.00,21.8,24.0,"03:33:04",1
"17/07/03","03:50",0.0,22.3,96.3,1005.7,313.8,0.3,0.6,345.6,0.00,21.7,23.7,"03:45:36",1
"17/07/03","04:00",0.0,22.4,96.3,1005.2,325.0,0.5,0.9,343.8,0.00,21.8,23.9,"03:54:16",1
"17/07/03","04:10",0.0,22.3,96.3,1005.2,316.6,0.1,0.5,313.3,0.00,21.7,23.8,"04:04:48",1
"17/07/03","04:20",0.0,22.3,96.4,1005.5,270.4,0.1,0.5,246.6,0.00,21.7,23.8,"04:15:04",1
"17/07/03","04:30",0.0,22.2,96.5,1005.0,283.9,0.2,0.6,253.0,0.00,21.7,23.9,"04:20:32",1
"17/07/03","04:40",0.0,22.2,96.5,1005.2,297.6,0.1,0.5,289.4,0.00,21.7,23.6,"04:30:02",1
"17/07/03","04:50",0.0,22.3,96.6,1005.2,291.9,0.5,0.8,323.2,0.00,21.8,23.7,"04:40:48",1
"17/07/03","05:00",0.0,22.3,96.6,1005.5,301.3,0.3,1.0,322.8,0.00,21.8,23.7,"04:59:04",1
"17/07/03","05:10",0.0,22.2,96.6,1005.0,272.7,0.5,1.0,317.4,0.00,21.7,23.6,"05:00:08",1
"17/07/03","05:20",0.0,22.2,96.6,1005.5,304.3,0.3,0.8,346.7,0.00,21.7,23.6,"05:12:56",1
"17/07/03","05:30",0.0,22.3,96.7,1005.2,269.2,0.2,0.8,246.2,0.00,21.8,23.7,"05:24:08",1
"17/07/03","05:40",0.0,22.5,96.8,1005.5,331.8,0.2,0.8,359.7,0.00,22.0,23.5,"05:36:48",1
"17/07/03","05:50",0.0,22.5,96.7,1005.5,171.8,0.3,0.8,153.1,0.00,22.0,23.6,"05:41:52",1
"17/07/03","06:00",0.0,22.8,96.8,1005.5,241.1,0.1,0.6,236.7,0.01,22.3,23.7,"05:59:36",1
"17/07/03","06:10",0.0,23.1,96.7,1005.5,348.8,0.3,0.9,11.0,0.02,22.6,23.6,"06:08:08",1
"17/07/03","06:20",0.0,23.5,96.5,1005.5,356.4,0.5,0.8,30.5,0.03,23.0,23.6,"06:11:12",1
"17/07/03","06:30",0.0,23.7,96.4,1005.2,9.0,0.5,1.0,3.6,0.04,23.1,23.6,"06:22:00",1
"17/07/03","06:40",0.0,24.2,96.0,1005.2,349.2,0.3,0.6,61.7,0.05,23.6,23.7,"06:36:00",1
"17/07/03","06:50",0.0,24.7,95.7,1005.5,344.3,0.5,1.0,342.7,0.06,24.0,23.8,"06:44:56",1
"17/07/03","07:00",0.0,24.6,95.1,1005.5,10.4,0.3,1.0,17.4,0.08,23.8,23.9,"06:52:16",1
"17/07/03","07:10",0.0,25.1,92.4,1005.2,117.7,0.2,0.6,195.8,0.09,23.8,23.9,"07:07:20",1
"17/07/03","07:20",0.0,25.5,91.8,1005.2,142.8,0.3,0.8,193.7,0.08,24.1,24.0,"07:15:36",1
"17/07/03","07:30",0.0,25.8,89.6,1005.2,106.7,0.2,0.8,189.9,0.10,24.0,24.0,"07:24:32",1
"17/07/03","07:40",0.0,25.7,89.4,1005.0,45.6,0.6,1.2,6.3,0.08,23.9,24.1,"07:37:52",1
"17/07/03","07:50",0.0,25.8,90.2,1005.0,2.0,0.7,1.2,3.7,0.09,24.1,24.2,"07:46:16",1
"17/07/03","08:00",0.0,25.8,89.6,1005.7,318.4,0.3,1.0,352.6,0.09,24.0,24.3,"07:50:16",1
"17/07/03","08:10",0.0,25.9,89.4,1005.5,350.7,0.5,1.1,233.3,0.06,24.1,24.3,"08:02:24",1
"17/07/03","08:20",0.0,26.1,89.0,1005.7,9.5,0.3,0.9,0.7,0.10,24.2,24.2,"08:16:48",1
"17/07/03","08:30",0.0,26.5,87.9,1005.5,292.2,0.1,0.8,127.0,0.11,24.4,24.4,"08:28:48",1
"17/07/03","08:40",0.0,27.0,87.4,1005.2,126.2,0.0,0.4,72.7,0.10,24.8,24.5,"08:31:20",1
"17/07/03","08:50",0.0,27.7,84.5,1005.5,171.7,0.2,0.8,216.0,0.21,24.9,24.6,"08:49:36",1
"17/07/03","09:00",0.0,28.1,82.9,1005.2,65.5,0.5,1.6,51.7,0.22,25.0,24.7,"08:59:04",1
"17/07/03","09:10",0.0,28.1,82.3,1005.2,57.3,0.7,1.8,36.1,0.20,24.8,24.7,"09:02:00",1
"17/07/03","09:20",0.0,28.9,77.5,1004.3,105.1,0.6,1.2,151.7,0.33,24.6,25.0,"09:18:32",1
"17/07/03","09:30",0.0,30.0,75.7,1004.8,101.0,0.5,1.4,76.2,0.38,25.3,25.2,"09:27:28",1
"17/07/03","09:40",0.0,29.4,74.9,1005.2,40.8,0.7,1.4,45.0,0.34,24.5,25.4,"09:36:16",1
"17/07/03","09:50",0.0,30.0,76.0,1005.5,123.4,0.5,1.3,162.4,0.34,25.3,25.5,"09:46:24",1
"17/07/03","10:00",0.0,29.8,77.3,1005.5,95.3,0.8,1.7,64.0,0.27,25.4,25.6,"09:53:12",1
"17/07/03","10:10",0.0,30.2,75.3,1005.5,110.5,0.8,1.8,118.5,0.30,25.4,25.8,"10:06:16",1
"17/07/03","10:20",0.0,29.8,75.9,1005.2,30.9,0.5,1.4,124.9,0.18,25.1,25.8,"10:10:08",1
"17/07/03","10:30",0.0,30.3,73.1,1005.5,323.1,1.3,4.8,345.4,0.35,25.0,26.0,"10:26:08",1
"17/07/03","10:40",0.0,31.2,69.1,1005.2,233.0,1.3,4.0,227.6,0.54,24.9,26.2,"10:33:44",1
"17/07/03","10:50",0.0,31.3,68.4,1005.2,228.0,1.8,3.9,224.1,0.54,24.8,26.4,"10:48:16",1
"17/07/03","11:00",0.0,31.4,66.7,1005.2,240.9,1.2,3.5,221.3,0.48,24.5,26.7,"10:53:20",1
"17/07/03","11:10",0.0,31.6,66.9,1005.5,299.3,1.5,3.9,356.6,0.51,24.7,26.8,"11:06:08",1
"17/07/03","11:20",0.0,31.8,64.6,1005.5,271.5,1.5,4.3,350.5,0.54,24.3,27.1,"11:16:16",1
"17/07/03","11:30",0.0,31.7,65.2,1005.5,262.5,1.7,3.7,231.2,0.53,24.4,27.0,"11:25:52",1
"17/07/03","11:40",0.0,31.9,64.0,1005.0,245.5,1.6,4.1,226.3,0.45,24.3,27.4,"11:34:56",1
"17/07/03","11:50",0.0,32.2,62.9,1005.0,230.0,1.6,4.0,231.6,0.47,24.3,27.6,"11:46:40",1
"17/07/03","12:00",0.0,32.1,63.9,1005.2,299.4,1.8,5.4,330.8,0.41,24.4,27.8,"11:52:16",1
"17/07/03","12:10",0.0,31.8,61.2,1005.0,244.8,2.0,4.4,220.4,0.43,23.4,27.6,"12:05:28",1
"17/07/03","12:20",0.0,31.5,64.4,1004.5,240.2,1.7,4.7,228.5,0.28,24.0,28.0,"12:12:40",1
"17/07/03","12:30",0.0,32.6,63.0,1004.5,225.3,1.6,4.7,230.3,0.46,24.7,27.8,"12:24:00",1
"17/07/03","12:40",0.0,32.7,63.6,1004.5,330.1,1.6,5.1,350.4,0.37,24.9,28.1,"12:38:24",1
"17/07/03","12:50",0.0,31.7,64.0,1004.3,325.1,1.8,5.8,340.6,0.17,24.1,28.1,"12:41:28",1
"17/07/03","13:00",0.0,32.4,64.3,1004.3,286.6,1.0,2.7,124.4,0.25,24.8,28.1,"12:58:32",1
"17/07/03","13:10",0.0,32.7,59.6,1004.3,252.2,1.6,4.7,215.2,0.42,23.8,28.3,"13:08:06",1
"17/07/03","13:20",0.0,32.7,60.1,1004.1,255.0,1.5,2.6,205.1,0.35,24.0,28.0,"13:13:04",1
"17/07/03","13:30",0.0,32.7,60.0,1004.3,246.6,1.5,2.8,282.1,0.41,24.0,28.4,"13:26:48",1
"17/07/03","13:40",0.0,32.5,61.1,1004.3,231.0,2.3,7.5,224.8,0.42,24.1,28.3,"13:31:04",1
"17/07/03","13:50",0.0,32.6,56.0,1004.5,298.5,1.5,4.7,352.9,0.35,22.7,28.2,"13:49:44",1
"17/07/03","14:00",0.0,32.5,57.3,1004.1,316.0,2.3,9.1,342.9,0.37,23.0,28.2,"13:58:00",1
"17/07/03","14:10",0.0,33.2,55.1,1003.8,291.5,1.8,4.4,343.7,0.51,23.0,28.2,"14:06:24",1
"17/07/03","14:20",0.0,33.3,55.2,1003.6,303.7,1.8,4.5,355.9,0.41,23.1,28.4,"14:11:52",1
"17/07/03","14:30",0.0,33.1,56.1,1003.8,287.8,1.6,4.1,219.7,0.42,23.2,28.4,"14:22:08",1
"17/07/03","14:40",0.0,32.6,57.2,1003.8,313.8,2.0,4.5,334.1,0.35,23.1,28.4,"14:33:04",1
"17/07/03","14:50",0.0,32.6,57.2,1003.6,237.7,1.8,4.1,227.7,0.35,23.1,28.4,"14:42:48",1
"17/07/03","15:00",0.0,32.5,56.1,1003.1,241.8,2.2,6.7,228.9,0.33,22.7,28.3,"14:52:08",1
"17/07/03","15:10",0.0,32.2,55.7,1003.1,230.9,2.6,5.8,229.6,0.31,22.3,28.3,"15:01:20",1
"17/07/03","15:20",0.0,32.3,56.4,1003.1,253.5,1.7,4.4,228.3,0.29,22.6,28.4,"15:13:36",1
"17/07/03","15:30",0.0,32.6,55.4,1002.9,255.1,1.5,4.7,227.8,0.30,22.5,28.3,"15:21:04",1
"17/07/03","15:40",0.0,32.3,55.8,1003.1,241.8,1.2,5.4,228.8,0.27,22.4,28.5,"15:39:12",1
"17/07/03","15:50",0.0,32.2,56.8,1002.6,243.3,1.8,4.7,223.1,0.26,22.6,28.3,"15:46:32",1
"17/07/03","16:00",0.0,32.1,57.9,1002.6,261.4,1.2,3.7,218.5,0.22,22.8,28.4,"15:56:40",1
"17/07/03","16:10",0.0,32.2,60.1,1002.9,235.5,1.3,3.6,199.5,0.22,23.5,28.4,"16:06:24",1
"17/07/03","16:20",0.0,32.3,59.6,1002.9,228.0,1.8,5.1,226.0,0.25,23.5,28.5,"16:14:16",1
"17/07/03","16:30",0.0,32.6,56.2,1002.9,248.9,1.1,3.4,286.2,0.29,22.8,28.5,"16:29:36",1
"17/07/03","16:40",0.0,31.8,60.0,1002.6,240.8,1.2,3.4,250.3,0.15,23.1,28.5,"16:32:32",1
"17/07/03","16:50",0.0,31.8,62.1,1002.2,228.0,1.3,2.8,226.3,0.16,23.7,28.5,"16:46:40",1
"17/07/03","17:00",0.0,31.3,61.7,1002.2,223.9,2.1,5.0,219.8,0.14,23.1,28.4,"16:58:32",1
"17/07/03","17:10",0.0,31.2,62.0,1002.4,234.5,1.6,4.2,224.1,0.11,23.1,28.4,"17:01:12",1
"17/07/03","17:20",0.0,31.6,61.7,1002.2,236.6,1.5,3.2,253.0,0.11,23.4,28.5,"17:18:24",1
"17/07/03","17:30",0.0,31.4,62.6,1002.4,235.3,2.1,3.5,241.0,0.11,23.4,28.5,"17:20:08",1
"17/07/03","17:40",0.0,31.3,62.6,1002.2,219.7,2.0,4.0,217.3,0.08,23.3,28.2,"17:30:48",1
"17/07/03","17:50",0.0,31.1,62.8,1002.2,222.6,1.7,4.2,227.6,0.06,23.2,28.3,"17:40:48",1
"17/07/03","18:00",0.0,30.7,63.6,1001.7,230.2,1.5,3.9,217.3,0.04,23.0,28.2,"17:59:20",1
"17/07/03","18:10",0.0,30.5,64.1,1001.9,230.4,0.8,1.9,184.7,0.03,23.0,28.1,"18:00:08",1
"17/07/03","18:20",0.0,30.2,64.2,1001.5,240.3,2.1,4.4,230.8,0.03,22.7,28.2,"18:13:44",1
"17/07/03","18:30",0.0,30.1,64.4,1001.7,239.8,2.1,3.7,236.6,0.03,22.7,27.9,"18:22:56",1
"17/07/03","18:40",0.0,30.0,65.6,1001.5,232.1,2.0,4.9,230.1,0.02,22.9,27.9,"18:33:36",1
"17/07/03","18:50",0.0,29.7,65.9,1001.5,228.4,2.1,5.4,221.0,0.01,22.7,28.0,"18:42:48",1
"17/07/03","19:00",0.0,29.6,66.4,1001.2,235.8,1.6,3.3,232.4,0.00,22.7,27.6,"18:59:44",1
"17/07/03","19:10",0.0,29.4,67.4,1001.5,227.2,1.7,4.5,215.3,0.00,22.8,27.7,"19:04:24",1
"17/07/03","19:20",0.0,29.1,67.8,1002.2,235.7,1.5,3.6,231.9,0.00,22.6,27.6,"19:18:32",1
"17/07/03","19:30",0.0,29.0,68.1,1001.9,244.2,1.3,3.1,233.3,0.00,22.6,27.6,"19:21:28",1
"17/07/03","19:40",0.0,28.5,72.5,1002.2,326.8,1.1,1.8,312.4,0.00,23.1,27.4,"19:30:40",1
"17/07/03","19:50",0.0,27.7,75.0,1002.2,325.1,0.7,1.3,328.2,0.00,22.9,27.4,"19:43:52",1
"17/07/03","20:00",0.0,27.3,76.9,1002.4,4.1,1.1,2.8,341.2,0.00,22.9,27.2,"19:50:56",1
"17/07/03","20:10",0.0,27.1,78.2,1002.6,343.2,1.0,1.8,321.5,0.00,23.0,27.2,"20:04:32",1
"17/07/03","20:20",0.0,26.7,79.2,1002.6,310.1,1.1,1.8,324.1,0.00,22.8,26.9,"20:18:48",1
"17/07/03","20:30",0.0,26.7,79.9,1002.9,307.4,1.1,2.0,312.9,0.00,23.0,26.8,"20:24:16",1
"17/07/03","20:40",0.0,26.5,80.2,1003.1,300.3,1.2,1.9,325.8,0.00,22.8,26.8,"20:35:20",1
"17/07/03","20:50",0.0,26.3,81.0,1003.4,320.1,1.2,2.1,333.2,0.00,22.8,26.7,"20:46:24",1
"17/07/03","21:00",0.0,26.2,83.1,1003.1,316.0,0.8,2.0,342.3,0.00,23.1,26.8,"20:53:52",1
"17/07/03","21:10",0.0,25.8,84.0,1003.1,287.0,0.5,1.1,268.5,0.00,22.9,26.7,"21:04:48",1
"17/07/03","21:20",0.0,25.7,84.5,1003.4,323.0,0.7,1.3,341.1,0.00,22.9,26.5,"21:19:28",1
"17/07/03","21:30",0.0,25.7,84.8,1003.1,295.6,0.8,1.3,337.0,0.00,23.0,26.6,"21:20:08",1
"17/07/03","21:40",0.0,25.7,85.3,1003.4,309.7,0.8,1.3,327.5,0.00,23.1,26.2,"21:35:12",1
"17/07/03","21:50",0.0,25.8,85.8,1003.4,337.7,1.0,1.3,323.6,0.00,23.3,26.5,"21:41:20",1
"17/07/03","22:00",0.0,25.8,85.2,1003.6,336.3,1.2,2.2,349.7,0.00,23.2,26.6,"21:52:16",1
"17/07/03","22:10",0.0,25.7,85.3,1003.8,302.8,0.8,1.2,330.3,0.00,23.1,26.4,"22:03:44",1
"17/07/03","22:20",0.0,25.7,85.4,1003.8,322.6,1.1,1.8,330.8,0.00,23.1,26.2,"22:19:20",1
"17/07/03","22:30",0.0,25.6,86.0,1003.6,329.7,1.0,2.0,342.8,0.00,23.1,26.3,"22:20:16",1
"17/07/03","22:40",0.0,25.3,86.5,1003.6,287.8,0.2,0.6,321.6,0.00,22.9,26.1,"22:35:20",1
"17/07/03","22:50",0.0,24.9,87.0,1003.6,295.1,0.7,1.0,302.8,0.00,22.6,25.9,"22:44:00",1
"17/07/03","23:00",0.0,24.9,87.7,1003.6,323.7,1.0,1.6,327.2,0.00,22.8,26.1,"22:55:04",1
"17/07/03","23:10",0.0,24.9,87.8,1003.4,347.3,1.2,1.8,352.9,0.00,22.8,25.9,"23:04:32",1
"17/07/03","23:20",0.0,24.6,88.3,1003.6,328.6,1.1,1.6,316.9,0.00,22.6,25.9,"23:14:16",1
"17/07/03","23:30",0.0,24.4,88.8,1003.6,312.2,0.8,1.3,264.1,0.00,22.5,25.8,"23:27:12",1
"17/07/03","23:40",0.0,24.3,89.1,1003.4,292.9,0.7,1.0,272.6,0.00,22.4,25.9,"23:30:32",1
"17/07/03","23:50",0.0,24.4,89.6,1003.4,334.2,1.1,1.8,318.0,0.00,22.6,25.7,"23:47:12",1
"17/07/03","24:00",0.0,24.4,89.4,1003.4,322.1,0.8,1.2,314.4,0.00,22.6,25.6,"23:52:24",1
